Simultaneous Nadir Overpasses (SNOs) Predictions

Prediction of SNOs between NOAA-19 and METOP-C Satellite Orbit:

Table of predicted SNOs for the next 14.0 days since TLE Epoch: 10/15/2022
Index Date (NOAA-19) Time (NOAA-19) Lat,Lon (NOAA-19) SZA (NOAA-19 ) Date (METOP-C) Time (METOP-C) Lat,Lon (METOP-C) SZA (METOP-C ) Distance(km) Time Diff (sec)
1 10/22/2022 15:34:51 80.90, -19.06 93.99 10/22/2022 15:35:45 80.90, -19.03 94.02 1.12 54
2 10/22/2022 16:25:46 -80.90, 148.06 86.01 10/22/2022 16:26:28 -80.89, 148.02 86.01 1.00 42
3 10/22/2022 17:16:51 80.90, -44.68 94.01 10/22/2022 17:17:07 80.90, -44.50 94.03 3.04 16
4 10/22/2022 18:07:45 -80.89, 122.82 85.97 10/22/2022 18:07:49 -80.90, 122.91 85.95 1.78 4
5 10/22/2022 18:58:50 80.89, -69.92 94.06 10/22/2022 18:58:29 80.89, -69.97 94.04 1.04 21
6 10/22/2022 19:49:44 -80.89, 97.58 85.92 10/22/2022 19:49:11 -80.90, 97.44 85.94 2.46 33
7 10/22/2022 20:40:49 80.89, -95.16 94.10 10/22/2022 20:39:50 80.90, -95.08 94.09 1.79 59



Historial Predications of SNOs between NOAA-19 and METOP-C
